Flag for Germany Weather past 2 weeks in Dreieich, Hesse, Germany

Now
32 °F

Low clouds.


Feels Like: 32 °F
Forecast: 30 / 36 °F
Wind: 1 mph from West

Location: Frankfurt / M-Flughafen

Current Time: Feb 1, 2015 at 7:43:02 AM

Latest Report: Feb 1, 2015 at 7:00 AM


Visibility: 4 mi

Pressure: 29.18 "Hg

Humidity: 99%

Dew point: 32 °F

Location of DreieichLocation

Historic Weather in Dreieich — Graph

°F

Dreieich temperature yesterday

Maximum temperature yesterday: 39 °F (at 2:00 PM)
Minimum temperature yesterday: 32 °F (at 12:00 AM)
Average temperature yesterday: 35 °F

Past Weeks' High & Low Weather Summary

 TemperatureHumidityPressure
High42 °F (Jan 17, 2:00 PM)100% (Jan 17, 8:00 AM)30.45 "Hg (Jan 17, 8:00 AM)
Low24 °F (Jan 24, 3:00 AM)66% (Jan 31, 1:00 PM)28.70 "Hg (Jan 30, 3:00 AM)
Average34 °F89%29.86 "Hg
* Reported Jan 17 7:00 AM — Feb 1 7:00 AM, Dreieich, Weather by CustomWeather, © 2014

Note: Actual official high and low records may vary slightly from our data, if they occured in-between our weather recording intervals... More about our weather records

Advertising

Dreieich weather history for previous 24 hours

 ConditionsComfort  
Time TempWeatherWind HumidityBarometerVisibility
7:00 AM
Feb 1
32 °FLow clouds.1 mph99%29.18 "Hg4 mi
6:00 AM32 °FLow clouds.1 mph100%29.18 "Hg5 mi
5:00 AM32 °FLight snow. Low clouds.1 mph99%29.15 "Hg3 mi
3:00 AM32 °FLight snow. Low clouds.1 mph100%29.15 "Hg2 mi
2:00 AM32 °FSnow. Low clouds.1 mph99%29.15 "Hg1 mi
1:00 AM32 °FLight snow. Low clouds.2 mph100%29.15 "Hg3 mi
12:00 AM32 °FLight snow. Overcast.1 mph99%29.15 "Hg7 mi
11:00 PM
Jan 31
33 °FPassing clouds.3 mph100%29.15 "Hg5 mi
9:00 PM34 °FFog.2 mph99%29.15 "Hg4 mi
8:00 PM33 °FLow clouds.1 mph99%29.15 "Hg4 mi
7:00 PM33 °FLight snow. Low clouds.2 mph99%29.12 "Hg3 mi
6:00 PM34 °FLight rain. Low clouds.2 mph97%29.12 "Hg4 mi
5:00 PM36 °FSprinkles. Overcast.3 mph93%29.09 "Hg7 mi
4:00 PM38 °FOvercast.6 mph80%29.06 "Hg12 mi
3:00 PM39 °FPartly sunny.6 mph73%29.06 "Hg25 mi
2:00 PM39 °FPartly sunny.7 mph68%29.06 "Hg25 mi
1:00 PM38 °FPartly sunny.6 mph66%29.06 "Hg19 mi
12:00 PM38 °FPartly sunny.7 mph70%29.06 "Hg16 mi
11:00 AM37 °FOvercast.6 mph79%29.06 "Hg16 mi
9:00 AM35 °FOvercast.8 mph83%29.03 "Hg16 mi
8:00 AM35 °FOvercast.5 mph83%29.00 "Hg16 mi
7:00 AM34 °FOvercast.6 mph88%29.00 "Hg7 mi
Weather by CustomWeather, © 2014

See weather overviewHow to use our weather pages